Le nostre stazioni meteo in Italia

Pubblicità
Il mio iltempo24.it
Parma, Italia (16086): Temperatura & dewpoint: 01.12.2019 10:00:00 - 07.12.2019 10:00:00 (CET)Parma, Italia (16086): velocità del vento: 01.12.2019 10:00:00 - 07.12.2019 10:00:00 (CET)Parma, Italia (16086): direzione del vento: 01.12.2019 10:00:00 - 07.12.2019 10:00:00 (CET)Parma, Italia (16086): reduced air pressure: 01.12.2019 10:00:00 - 07.12.2019 10:00:00 (CET)Parma, Italia (16086): precipitazioni: 01.12.2019 10:00:00 - 07.12.2019 10:00:00 (CET)
Data & Tempo tt [°C] td [°C] ff [km/h] ff [kn] dd ppp [hPa] rr [mm]
07.12.2019 10:00:00 - - - - - - -
07.12.2019 09:00:00 5,4 3,2 3 2 SSO 1020,7 0,0
07.12.2019 08:00:00 5,1 3,1 3 2 SSO 1020,5 0,0
07.12.2019 07:00:00 5,2 3,2 3 2 SSO 1020,3 0,0
07.12.2019 06:00:00 5,7 3,5 3 2 OSO 1020,2 0,0
07.12.2019 05:00:00 5,9 3,4 4 2 SO 1020,3 0,0
07.12.2019 04:00:00 5,9 3,2 4 2 SSO 1020,5 0,0
07.12.2019 03:00:00 5,8 3,3 5 3 SO 1021,2 0,0
07.12.2019 02:00:00 5,4 2,9 5 3 SSO 1021,7 0,0
07.12.2019 01:00:00 5,6 2,8 4 2 SO 1022,0 0,0
07.12.2019 00:00:00 5,6 3,6 4 2 OSO 1022,7 0,0
06.12.2019 23:00:00 5,7 3,5 4 2 O 1022,8 0,0
06.12.2019 22:00:00 5,9 3,2 4 2 O 1023,0 0,0
06.12.2019 21:00:00 6,0 3,2 2 1 O 1023,0 0,0
06.12.2019 20:00:00 6,2 3,0 2 1 NO 1023,5 0,0
06.12.2019 19:00:00 6,1 3,3 4 2 NO 1023,5 0,0
06.12.2019 18:00:00 6,3 2,7 - - - 1023,6 0,0
06.12.2019 17:00:00 6,4 2,7 2 1 NO 1023,8 0,0
06.12.2019 16:00:00 6,6 2,7 3 1 O 1023,9 0,0
06.12.2019 15:00:00 7,0 2,9 5 3 ONO 1024,4 0,0
06.12.2019 14:00:00 6,2 2,6 4 2 ONO 1025,0 0,0
06.12.2019 13:00:00 6,7 2,8 5 3 NO 1025,8 0,0
06.12.2019 12:00:00 6,0 2,5 4 2 ONO 1026,5 0,0
06.12.2019 11:00:00 5,4 2,1 4 2 O 1027,4 0,0
06.12.2019 10:00:00 4,8 1,5 5 3 OSO 1027,5 0,0
06.12.2019 09:00:00 4,4 1,4 3 2 OSO 1027,2 0,0
06.12.2019 08:00:00 4,2 1,2 4 2 OSO 1027,0 0,0
06.12.2019 07:00:00 4,0 1,0 4 2 OSO 1027,1 0,0
06.12.2019 06:00:00 3,8 0,8 5 3 OSO 1027,0 0,0
06.12.2019 05:00:00 3,7 0,6 5 3 OSO 1026,9 0,0
06.12.2019 04:00:00 3,6 0,5 5 3 OSO 1027,1 0,0
06.12.2019 03:00:00 3,5 0,4 4 2 OSO 1027,6 0,0
06.12.2019 02:00:00 2,9 0,1 5 3 OSO 1027,8 0,0
06.12.2019 01:00:00 3,1 0,3 5 3 OSO 1027,9 0,0
06.12.2019 00:00:00 2,8 0,0 5 3 OSO 1028,2 0,0
05.12.2019 23:00:00 2,9 0,1 6 3 OSO 1028,3 0,0
05.12.2019 22:00:00 2,9 0,3 5 3 SO 1028,3 0,0
05.12.2019 21:00:00 3,0 0,6 8 4 SO 1028,3 0,0
05.12.2019 20:00:00 3,9 1,6 5 3 OSO 1028,3 0,0
05.12.2019 19:00:00 4,4 1,6 2 1 ESE 1028,1 0,0
05.12.2019 18:00:00 5,2 1,9 1 1 ESE 1027,6 0,0
05.12.2019 17:00:00 5,4 1,3 1 1 ESE 1027,4 0,0
05.12.2019 16:00:00 6,3 0,8 2 1 SE 1027,2 0,0
05.12.2019 15:00:00 6,3 1,0 2 1 S 1027,0 0,0
05.12.2019 14:00:00 5,7 1,0 1 1 O 1027,2 0,0
05.12.2019 13:00:00 5,2 0,4 3 1 O 1027,9 0,0
05.12.2019 12:00:00 4,9 0,1 3 2 OSO 1028,3 0,0
05.12.2019 11:00:00 3,3 -0,3 3 2 SO 1028,6 0,0
05.12.2019 10:00:00 2,8 -0,7 4 2 OSO 1028,2 0,0
05.12.2019 09:00:00 2,2 -0,7 4 2 SO 1027,5 0,0
05.12.2019 08:00:00 2,4 -0,5 5 3 OSO 1026,8 0,0
05.12.2019 07:00:00 2,2 -0,7 5 3 S 1026,8 0,0
05.12.2019 06:00:00 1,9 -0,5 6 4 SSO 1026,2 0,0
05.12.2019 05:00:00 2,2 -0,4 4 2 SO 1026,0 0,0
05.12.2019 04:00:00 2,2 -0,2 9 5 SO 1025,9 0,0
05.12.2019 03:00:00 2,5 0,1 5 3 SO 1026,2 0,0
05.12.2019 02:00:00 2,4 0,1 4 2 OSO 1026,2 0,0
05.12.2019 01:00:00 2,6 0,2 4 2 SO 1026,2 0,0
05.12.2019 00:00:00 3,1 0,3 6 4 SO 1026,0 0,0
04.12.2019 23:00:00 3,3 0,5 8 4 SO 1025,8 0,0
04.12.2019 22:00:00 3,6 0,5 7 4 SO 1025,8 0,0
04.12.2019 21:00:00 4,0 0,9 6 3 SO 1025,9 0,0
04.12.2019 20:00:00 4,7 0,6 - - - 1025,8 0,0
04.12.2019 19:00:00 5,0 0,8 4 2 S 1025,7 0,0
04.12.2019 18:00:00 5,7 0,7 3 2 E 1025,6 0,0
04.12.2019 17:00:00 6,1 0,0 4 2 ENE 1025,5 0,0
04.12.2019 16:00:00 6,7 0,2 8 4 NE 1025,6 0,0
04.12.2019 15:00:00 7,4 0,4 8 5 ENE 1025,5 0,0
04.12.2019 14:00:00 7,2 0,6 9 5 ENE 1025,9 0,0
04.12.2019 13:00:00 7,0 0,9 11 6 ENE 1026,5 0,0
04.12.2019 12:00:00 6,2 0,9 8 4 ENE 1026,9 0,0
04.12.2019 11:00:00 4,4 0,0 10 5 ENE 1027,9 0,0
04.12.2019 10:00:00 3,7 -0,1 5 3 ENE 1028,0 0,2
04.12.2019 09:00:00 2,6 0,0 3 1 O 1028,0 0,0
04.12.2019 08:00:00 2,2 0,4 3 1 OSO 1027,6 0,0
04.12.2019 07:00:00 1,7 - 6 3 OSO - 0,0
04.12.2019 06:00:00 2,7 1,1 - - - 1027,3 0,0
04.12.2019 05:00:00 2,4 0,8 - - - 1027,4 0,0
04.12.2019 04:00:00 2,8 0,7 1 1 SE 1027,5 0,0
04.12.2019 03:00:00 3,7 1,1 1 0 SE 1027,8 0,0
04.12.2019 02:00:00 4,5 0,8 3 2 E 1028,0 0,0
04.12.2019 01:00:00 4,5 0,3 1 0 E 1028,1 0,0
04.12.2019 00:00:00 4,6 -0,2 5 3 E 1028,6 0,0
03.12.2019 23:00:00 5,1 0,1 6 3 ENE 1028,4 0,0
03.12.2019 22:00:00 5,6 0,8 5 3 ENE 1028,3 0,0
03.12.2019 21:00:00 6,3 0,8 6 4 E 1027,8 0,0
03.12.2019 20:00:00 6,7 1,2 6 3 E 1027,3 0,0
03.12.2019 19:00:00 6,7 1,6 7 4 E 1026,6 0,0
03.12.2019 18:00:00 7,1 3,2 8 4 ENE 1026,2 0,0
03.12.2019 17:00:00 8,1 3,2 10 5 ENE 1025,4 0,0
03.12.2019 16:00:00 9,3 2,8 10 5 ENE 1025,1 0,0
03.12.2019 15:00:00 9,9 4,3 14 8 ENE 1024,9 0,0
03.12.2019 14:00:00 9,8 4,2 12 7 ENE 1025,0 0,0
03.12.2019 13:00:00 9,6 4,0 10 5 E 1025,2 0,0
03.12.2019 12:00:00 9,0 4,4 10 5 E 1025,7 0,0
03.12.2019 11:00:00 8,5 4,1 11 6 ENE 1026,1 0,0
03.12.2019 10:00:00 8,2 4,8 9 5 E 1025,6 0,0
03.12.2019 09:00:00 7,6 5,2 7 4 E 1025,1 0,0
03.12.2019 08:00:00 7,1 6,5 5 3 ENE 1024,2 0,0
03.12.2019 07:00:00 7,4 6,7 4 2 E 1023,7 0,0
03.12.2019 06:00:00 7,7 6,3 6 4 E 1023,2 0,0
03.12.2019 05:00:00 8,0 7,2 8 4 E 1023,4 0,0
03.12.2019 04:00:00 7,8 7,5 8 5 NNE 1023,0 0,0
03.12.2019 03:00:00 8,0 7,4 5 3 NNE 1022,7 0,2
03.12.2019 02:00:00 8,1 7,5 3 2 SSE 1022,4 0,2
03.12.2019 01:00:00 8,0 7,4 1 0 SSE 1022,1 0,2
03.12.2019 00:00:00 7,8 6,9 1 1 SSE 1021,8 0,2
02.12.2019 23:00:00 7,7 6,6 3 1 E 1021,4 0,2
02.12.2019 22:00:00 8,2 7,6 3 1 SE 1020,7 0,2
02.12.2019 21:00:00 8,2 7,3 3 1 SE 1020,0 0,2
02.12.2019 20:00:00 8,0 7,1 3 1 ESE 1019,2 0,4
02.12.2019 19:00:00 8,3 7,4 4 2 NNE 1018,4 0,2
02.12.2019 18:00:00 8,1 7,2 3 2 NE 1017,6 0,4
02.12.2019 17:00:00 8,2 6,8 3 1 NNO 1016,8 0,2
02.12.2019 16:00:00 8,2 6,8 3 2 SSO 1016,3 0,0
02.12.2019 15:00:00 7,9 6,7 5 3 SO 1016,1 0,0
02.12.2019 14:00:00 7,7 6,9 3 2 OSO 1016,2 0,0
02.12.2019 13:00:00 7,5 6,6 4 2 O 1016,7 0,0
02.12.2019 12:00:00 7,1 6,4 6 3 O 1016,9 0,0
02.12.2019 11:00:00 7,2 6,5 5 3 O 1017,1 0,0
02.12.2019 10:00:00 6,7 6,3 5 3 SO 1017,1 0,0
02.12.2019 09:00:00 6,4 6,1 6 3 O 1016,9 0,2
02.12.2019 08:00:00 6,6 6,3 4 2 O 1016,8 0,0
02.12.2019 07:00:00 6,5 6,5 4 2 O 1016,3 2,6
02.12.2019 06:00:00 6,3 6,2 5 3 OSO 1016,4 2,8
02.12.2019 05:00:00 6,5 6,1 5 3 OSO 1016,7 0,6
02.12.2019 04:00:00 6,4 6,1 6 3 OSO 1016,8 0,4
02.12.2019 03:00:00 6,3 6,2 5 3 O 1017,2 0,4
02.12.2019 02:00:00 6,3 6,2 5 3 O 1017,5 0,0
02.12.2019 01:00:00 6,4 6,3 5 3 O 1018,0 0,2
02.12.2019 00:00:00 6,3 6,0 4 2 O 1018,2 0,4
01.12.2019 23:00:00 6,3 6,0 4 2 O 1018,3 0,6
01.12.2019 22:00:00 6,4 6,1 5 3 NO 1018,6 1,6
01.12.2019 21:00:00 6,6 6,3 6 3 NO 1018,6 1,6
01.12.2019 20:00:00 6,8 6,5 - - - 1018,6 0,2
01.12.2019 19:00:00 7,0 6,9 4 2 NE 1018,4 0,0
01.12.2019 18:00:00 6,9 6,6 - - - 1018,7 0,0
01.12.2019 17:00:00 6,8 6,4 3 2 ENE 1018,9 0,0
01.12.2019 16:00:00 7,2 5,5 8 4 ENE 1019,3 0,0
01.12.2019 15:00:00 7,2 5,5 5 3 NE 1019,7 0,0
01.12.2019 14:00:00 7,2 5,8 7 4 ENE 1020,0 0,0
01.12.2019 13:00:00 7,4 5,9 8 4 ENE 1020,3 0,0
01.12.2019 12:00:00 7,3 5,3 10 6 ENE 1020,8 0,0
01.12.2019 11:00:00 7,1 5,9 3 2 E 1021,9 0,0
01.12.2019 10:00:00 7,0 6,1 4 2 E 1022,1 0,0

tt = Temperatura
td = dewpoint
ff = velocità del vento
dd = direzione del vento
ppp = reduced air pressure
rr = precipitazioni

Stazioni seguenti

WeatherPro
AMSI
MeteoEarth